EXPRESS-AM3

Last updated on Sat Jun 11 2022 00:02:37 GMT+0000 (Coordinated Universal Time)

1 28707U 05023A 22161.55218557 .00000026 00000+0 00000+0 0 9990 2 28707 3.5796 83.9067 0002152 6.1004 42.2806 0.98998977 38683
UTC large
Height (km)
Speed (km/s)
/
Latitude / Longitude
Inclination (degrees)
Orbital Period (minutes)
Azimuth
Elevation
Range (km)
Doppler Factor

Next 0 passes for location: London (51.5072 / 0.1276)

Sorry there are no passes over London.